Theta_e
318 319 320 321 322 320 321 322 323 323 322 322 325 324 325 328 331 327 333 337 340 342 341 343 344 344 340 336 334 332 338 339 338 337 336 335 333 331 329 327 327 328 329 323
320 320 321 319 319 320 322 322 322 322 321 322 325 325 325 337 335 334 335 338 339 342 344 344 344 344 344 342 340 337 338 338 338 338 336 335 332 330 330 328 329 327 322 320
322 320 318 320 321 322 321 322 322 322 323 323 322 325 325 333 343 339 337 336 337 341 344 343 342 342 342 343 341 340 338 337 337 337 335 332 330 329 329 328 324 323 320 318
321 320 321 320 321 321 322 321 321 322 324 325 322 326 328 328 337 344 341 340 339 341 343 343 341 340 340 339 339 339 338 336 335 334 334 333 335 334 330 326 323 320 317 316
321 321 320 322 322 321 321 321 322 323 324 324 324 325 326 335 329 330 344 344 342 342 342 342 340 339 336 338 340 339 338 337 334 334 335 335 333 330 328 322 318 315 314 313
320 320 320 322 320 320 321 322 322 322 324 327 326 325 325 326 332 336 344 344 343 342 341 340 337 336 335 337 337 337 336 334 335 335 334 334 334 324 320 317 315 313 311 309
318 320 320 320 321 320 321 324 326 326 326 326 323 324 326 328 327 335 335 339 343 341 341 338 336 336 335 336 335 333 332 329 333 334 333 329 325 321 318 315 313 311 309 309
319 318 319 319 320 320 323 325 326 326 326 325 323 327 326 329 333 341 341 340 342 341 340 338 336 335 336 335 332 329 327 324 324 323 321 320 318 315 313 311 311 309 309 309
321 320 319 317 319 320 322 324 324 327 324 326 325 326 326 332 339 342 343 343 342 341 340 339 335 334 336 332 328 327 325 322 320 319 317 315 312 311 311 309 308 309 308 308
321 321 320 320 320 319 322 322 326 325 328 327 326 327 326 330 330 334 345 345 342 341 339 338 333 332 333 330 326 324 323 321 318 316 315 313 311 310 310 310 311 310 309 308
319 321 319 319 320 320 321 322 324 325 327 327 327 326 330 332 332 333 333 342 343 340 339 334 330 333 331 327 324 321 320 318 315 314 313 312 312 310 310 312 310 309 308 308
318 322 322 321 319 318 320 322 325 323 325 327 327 327 327 328 327 328 333 341 342 341 337 333 334 332 329 326 323 321 319 317 316 314 313 313 312 311 312 311 310 308 309 310
320 322 324 325 322 320 321 320 322 325 326 325 327 326 326 331 335 335 337 341 342 341 340 338 334 331 328 326 323 321 319 318 316 314 313 313 312 313 312 310 309 309 309 310
322 323 323 324 323 323 326 324 324 325 326 326 326 325 326 327 330 331 338 341 341 339 339 338 334 330 327 325 323 321 319 317 315 314 314 314 313 313 311 309 309 309 311 310
322 325 323 322 321 322 323 323 323 325 326 328 328 327 326 329 330 330 334 340 341 339 338 338 335 331 327 325 322 320 318 316 315 314 314 314 312 311 310 309 310 310 308 308
318 322 321 321 320 319 320 320 321 323 324 325 326 328 327 329 327 329 333 338 340 340 338 337 334 330 328 325 321 320 317 316 314 315 314 313 311 312 312 310 311 309 309 309
316 320 322 320 319 320 319 319 319 320 321 325 328 329 328 328 331 332 334 336 338 339 338 336 334 331 328 324 322 320 317 315 314 314 313 312 311 312 312 311 309 309 309 307
314 320 320 320 321 320 319 323 320 322 325 327 327 327 326 328 331 333 332 334 336 337 337 335 333 330 328 323 321 319 317 315 314 314 312 311 312 311 310 309 309 309 308 308
314 315 316 320 321 319 319 318 319 322 324 326 327 327 328 328 334 335 335 333 335 336 335 334 332 330 323 322 320 319 316 315 314 313 311 312 310 310 309 309 309 309 308 308
315 315 317 320 322 320 324 322 319 319 327 325 324 326 329 335 332 330 335 334 333 333 332 332 330 325 323 321 319 318 315 314 314 311 312 310 309 309 310 310 310 308 306 306
320 320 319 318 321 320 320 321 320 320 325 326 325 327 331 335 337 335 334 334 333 331 331 329 324 324 323 319 318 317 315 314 312 311 310 309 309 310 309 308 308 306 306 306
321 324 324 322 323 322 323 320 320 326 326 325 326 327 327 330 334 333 332 332 331 329 324 324 325 322 318 317 317 315 314 312 310 309 309 310 310 308 306 304 306 306 306 306
322 321 319 322 321 323 323 323 321 321 323 325 328 328 329 330 332 331 330 329 328 326 325 323 321 317 315 315 316 314 312 310 309 310 310 309 308 307 305 304 305 305 306 306
315 316 320 321 316 318 318 317 316 320 322 323 326 328 330 332 332 330 327 327 327 324 322 320 317 316 314 313 313 312 310 309 311 310 310 309 308 307 307 304 304 305 306 305
313 314 314 316 314 313 312 315 318 317 316 316 321 326 328 331 330 327 326 325 323 321 318 317 317 315 311 310 310 310 309 310 310 310 309 309 308 307 305 305 304 305 306 304
309 310 312 312 311 314 316 317 316 315 315 316 320 328 329 329 328 325 325 321 318 318 316 315 313 311 310 310 310 310 310 310 310 309 309 308 308 307 306 305 306 305 303 302
Wind_Speed
3 5 10 8 4 1 1 2 6 7 7 5 6 12 15 10 8 11 15 18 15 16 8 9 7 7 11 14 15 20 21 23 23 20 14 11 12 13 12 11 9 5 4 4
4 9 7 3 6 4 3 4 9 11 4 5 9 15 11 5 4 4 10 13 14 11 9 9 9 7 7 9 10 13 17 23 22 19 17 12 15 11 11 10 7 4 3 3
8 2 4 8 6 5 6 6 8 9 8 5 6 7 5 1 3 2 6 10 10 14 12 9 8 7 7 9 10 12 15 17 17 18 17 16 14 12 9 7 4 3 3 3
6 3 6 7 7 4 8 6 9 7 3 4 2 5 3 5 10 5 7 9 10 12 10 11 11 10 10 10 12 13 13 15 16 18 16 17 12 12 6 6 5 2 2 2
5 5 6 8 14 9 7 5 5 5 5 3 4 5 3 2 6 6 6 8 8 9 11 12 12 12 11 13 14 15 14 14 15 15 13 11 10 9 9 8 6 3 2 0
6 1 3 3 4 10 2 3 1 1 3 6 4 5 4 4 4 4 3 4 7 9 11 11 12 12 12 13 15 15 15 13 13 13 13 11 11 13 11 9 6 4 3 1
3 11 6 4 8 4 4 3 3 5 6 7 1 4 7 9 7 8 9 7 8 10 12 13 13 14 14 14 15 15 14 13 14 13 13 13 14 13 10 9 6 5 3 2
7 4 11 8 16 7 6 6 5 7 6 5 3 4 3 5 6 8 9 9 10 11 12 15 16 17 17 16 13 13 13 15 15 15 15 14 13 10 9 7 6 4 3 1
5 4 2 4 4 11 5 7 2 2 2 4 4 4 10 9 12 9 6 6 11 13 15 16 17 17 17 15 13 14 14 13 14 15 14 13 11 9 8 7 5 4 2 0
5 7 7 3 4 3 5 8 3 2 5 8 5 4 6 7 11 7 9 10 11 12 14 15 16 16 16 15 15 14 14 15 15 14 12 10 10 9 8 6 5 4 2 2
4 5 4 1 7 11 5 5 1 2 2 6 8 6 6 11 11 12 10 10 12 14 14 13 15 19 16 16 16 16 15 15 13 12 10 9 7 7 5 3 2 3 3 4
3 2 4 10 2 5 8 12 8 6 5 2 3 7 5 9 11 10 14 8 11 15 14 13 17 19 19 18 17 16 15 13 11 10 10 8 6 6 3 1 1 2 5 6
4 2 3 4 4 3 2 2 2 0 2 12 10 7 2 8 11 12 13 8 12 15 16 16 16 18 20 20 19 16 14 13 11 11 9 8 5 3 0 1 3 6 9 10
1 2 5 5 1 0 5 5 3 5 4 9 11 16 11 13 14 16 11 8 11 14 16 16 15 18 19 19 18 16 14 14 13 11 9 6 3 2 2 4 6 9 11 12
4 4 4 9 10 10 12 14 12 11 12 8 15 16 15 14 12 13 11 9 13 17 19 18 17 14 19 18 17 16 15 14 13 11 6 3 4 4 6 7 9 11 12 12
3 2 4 6 8 11 16 17 15 16 17 16 20 21 20 19 11 12 11 12 16 19 20 19 17 18 19 18 17 16 15 14 11 7 4 4 5 6 8 10 10 10 11 10
4 3 2 8 4 12 18 16 21 19 18 17 16 15 17 13 13 15 13 15 19 16 17 19 19 21 24 23 23 20 16 13 10 6 5 4 4 6 9 8 7 9 11 12
6 4 4 6 6 14 8 4 5 9 14 15 15 15 16 15 13 14 11 14 16 16 19 20 20 23 24 21 19 18 17 13 10 7 5 5 5 5 6 7 9 10 11 11
17 11 6 6 11 19 22 17 10 8 20 9 11 14 14 9 5 14 15 15 15 16 18 24 27 27 24 24 23 20 16 13 10 8 6 6 6 5 8 9 9 10 11 12
11 14 8 5 7 8 3 3 7 7 13 8 16 15 12 5 5 11 5 8 10 13 20 23 24 25 26 24 23 21 16 13 10 7 6 6 5 5 8 9 10 10 11 14
4 7 16 13 9 11 10 16 11 7 4 18 16 17 12 7 7 10 3 5 11 18 22 21 22 23 21 23 23 20 17 14 10 9 7 6 4 4 7 8 9 11 11 11
8 8 6 9 9 14 9 8 19 9 18 18 23 19 17 16 15 8 2 8 14 16 21 25 23 19 20 23 22 18 14 12 10 8 6 4 2 4 6 8 8 8 10 11
5 5 3 8 5 2 12 11 10 15 17 20 18 22 18 17 14 9 6 10 13 19 21 21 25 24 22 21 19 17 14 13 10 7 5 2 1 4 6 8 9 9 10 10
4 3 5 8 8 17 18 21 21 20 16 20 21 20 20 18 13 10 8 9 10 17 21 25 28 25 23 19 17 17 16 12 9 6 5 1 2 6 6 6 7 8 9 9
5 7 8 19 19 23 22 14 14 19 24 25 26 22 23 18 11 10 11 12 13 16 20 26 27 26 23 22 21 17 13 10 8 6 3 1 3 4 6 8 8 7 8 6
11 13 10 13 14 17 18 19 23 28 27 28 26 25 20 12 9 13 12 16 19 20 21 25 26 26 22 19 20 16 12 9 7 5 3 2 4 6 8 10 9 11 9 8
Wind_Direction
167 203 207 191 193 170 219 260 280 275 271 279 269 278 283 314 293 239 231 221 215 221 183 171 161 192 217 226 220 224 215 210 203 187 174 172 168 167 168 166 170 175 234 258
163 229 212 184 169 180 212 271 279 291 238 268 302 290 288 269 272 252 241 230 220 198 182 156 158 167 183 192 196 200 200 200 198 194 194 184 161 162 161 164 179 220 247 288
215 185 172 189 181 223 246 257 267 269 313 264 294 264 246 235 299 303 250 243 222 212 193 167 160 155 147 154 160 170 181 183 185 186 175 155 147 147 155 166 170 214 252 284
232 218 206 194 239 205 277 225 262 266 285 286 15 285 268 328 304 209 211 226 225 211 188 169 158 151 152 149 147 145 148 154 165 167 161 161 162 157 161 182 184 199 246 289
200 192 191 213 241 200 252 184 272 280 238 272 202 245 268 301 298 307 212 207 218 204 186 171 157 151 135 145 139 136 140 147 157 155 159 156 141 150 158 156 149 151 134 236
239 231 206 238 178 188 131 215 194 135 190 235 227 248 255 300 297 284 54 203 204 187 174 164 148 139 132 135 136 141 141 153 152 154 155 161 159 148 144 148 154 158 154 186
221 238 230 194 256 173 186 266 260 221 214 255 52 235 262 267 264 260 308 286 208 189 174 163 157 155 147 148 146 145 150 142 146 148 147 144 142 143 149 156 160 158 172 185
215 243 214 195 224 228 195 209 233 247 248 270 157 237 241 263 269 282 301 273 200 188 183 176 171 165 162 159 153 144 144 140 135 135 135 138 141 140 142 151 160 153 150 168
183 252 256 219 205 195 163 215 318 181 61 263 272 264 271 251 269 254 257 195 192 195 188 180 173 174 169 156 152 151 147 142 134 133 136 140 142 142 153 158 149 132 119 215
208 266 248 167 160 101 230 144 191 186 238 249 223 256 259 280 282 261 239 226 202 200 186 182 176 180 173 163 157 155 156 148 139 137 141 143 149 150 159 165 152 100 40 7
169 230 217 220 213 229 183 204 141 265 261 265 264 256 221 262 288 287 286 236 204 192 188 179 182 181 170 161 160 158 156 145 140 142 148 153 159 160 166 158 70 23 344 325
27 206 243 254 252 320 247 246 211 244 231 226 283 258 239 258 281 282 286 228 204 188 181 181 175 170 166 164 165 164 153 145 148 152 161 169 174 175 166 47 350 316 300 292
349 231 262 169 133 136 213 184 218 168 287 251 253 257 271 278 276 268 268 211 190 189 179 178 173 172 173 171 167 164 154 155 163 167 172 180 179 171 357 328 317 293 292 293
184 263 254 256 303 24 255 221 252 235 248 259 242 273 261 272 273 280 254 233 198 188 182 177 176 176 173 169 168 161 163 170 170 176 184 183 180 211 261 288 287 289 293 298
42 279 295 271 267 258 255 257 256 235 246 255 277 261 268 267 267 278 274 219 194 190 189 186 180 173 172 165 164 167 170 176 175 181 185 189 220 249 256 271 284 291 297 302
357 290 336 284 287 271 266 257 259 249 253 259 260 268 263 262 267 265 245 220 218 205 196 187 178 171 169 167 165 173 174 176 175 180 195 212 253 263 263 275 283 288 299 298
296 239 268 255 306 302 275 257 237 244 242 242 257 257 278 252 244 254 248 224 228 212 198 187 177 177 172 174 171 173 172 169 176 183 210 240 238 264 278 273 279 292 296 300
224 236 250 267 288 253 263 31 321 249 248 244 256 268 269 258 270 273 257 240 232 207 189 186 180 173 172 167 164 161 167 170 177 196 202 227 248 263 266 275 284 294 299 297
216 224 246 239 225 276 294 281 259 241 267 275 267 275 287 271 282 278 252 231 242 207 187 177 178 171 160 161 165 163 160 168 184 193 193 221 225 247 274 277 283 296 303 304
202 215 233 213 237 250 56 351 167 317 282 341 268 268 291 211 258 266 353 217 198 184 172 177 170 164 157 161 158 153 158 171 185 188 209 200 225 249 274 284 292 296 306 302
155 197 220 230 249 264 247 271 283 269 342 344 347 340 325 259 294 331 355 153 164 160 164 158 160 161 158 150 150 151 161 173 175 170 186 206 220 270 278 294 296 302 307 307
194 184 187 213 237 259 3 258 245 346 321 328 323 319 317 306 292 301 243 161 153 151 152 156 148 145 145 147 150 152 157 160 162 170 183 203 234 275 289 304 307 303 311 315
246 255 242 221 232 324 294 313 307 309 306 316 325 314 312 302 281 255 213 183 165 154 152 146 137 137 139 144 149 150 151 154 159 173 173 163 315 302 301 306 303 313 318 322
269 343 255 297 272 266 304 312 309 318 323 318 313 316 315 297 278 227 195 175 162 151 144 140 136 136 134 142 145 141 146 157 162 166 144 158 329 307 310 309 306 309 319 318
254 320 266 269 279 287 281 291 323 318 319 318 309 307 309 293 261 209 181 165 152 141 144 140 140 139 138 144 136 133 149 158 153 143 133 89 333 322 320 314 308 306 302 301
225 236 238 258 278 268 284 299 311 304 302 298 298 300 300 277 226 188 171 155 143 143 140 128 125 130 138 138 130 138 151 154 148 147 111 10 343 321 313 315 315 311 313 303